Location: Ravensburg
(47.7866°N, 9.6124°E)
Time: 22:08:05
(UTC+02:00)

AO-85 - Pass Details

Date: 12 March 2026
Orbit: 507 x 686 km, 64.8° (Epoch: 11 April)

Event Time Altitude Azimuth Distance (km) Brightness Sun altitude
Exits shadow 04:35:14 - 167° (SSE) 1,950 ? -21.6°
Reaches altitude 10° 04:35:41 10° 164° (SSE) 1,808 ? -21.6°
Maximum altitude 04:38:40 20° 115° (ESE) 1,255 ? -21.1°
Drops below altitude 10° 04:41:37 10° 67° (ENE) 1,761 ? -20.6°
Sets 04:44:09 0° 50° (NE) 2,636 ? -20.2°
